This is the latest recevied weather packets stored in our database for station/object N3FAA. If no packets are shown the sender has not sent any weather packets the latest 1 day(s).
| Time | Temp. | Humidity | Pressure | Rain* | Wind** | Luminosity | Snow |
|---|---|---|---|---|---|---|---|
| 1777995964 | 13.33° C | 61% | 1009.9 hPa | 0 mm | 4.92 m/s, 253° | 156 W/m² | - |
| 1777995660 | 12.78° C | 63% | 1009.6 hPa | 0 mm | 5.81 m/s, 243° | 390 W/m² | - |
| 1777995358 | 12.78° C | 64% | 1009.8 hPa | 0 mm | 4.92 m/s, 250° | 347 W/m² | - |
| 1777995055 | 12.78° C | 64% | 1009.6 hPa | 0 mm | 1.79 m/s, 235° | 314 W/m² | - |
| 1777994752 | 12.78° C | 67% | 1009.6 hPa | 0 mm | 4.47 m/s, 228° | 299 W/m² | - |
| 1777994447 | 12.22° C | 68% | 1009.8 hPa | 0 mm | 5.81 m/s, 252° | 294 W/m² | - |
| 1777994142 | 12.22° C | 68% | 1009.4 hPa | 0 mm | 4.47 m/s, 259° | 291 W/m² | - |
| 1777993841 | 12.22° C | 68% | 1009.8 hPa | 0 mm | 3.58 m/s, 242° | 283 W/m² | - |
| 1777993536 | 12.22° C | 68% | 1009.5 hPa | 0 mm | 2.68 m/s, 240° | 260 W/m² | - |
| 1777993233 | 11.67° C | 69% | 1009.4 hPa | 0 mm | 4.92 m/s, 248° | 238 W/m² | - |
| 1777992929 | 11.67° C | 69% | 1009.4 hPa | 0 mm | 4.47 m/s, 230° | 237 W/m² | - |
| 1777992628 | 11.67° C | 69% | 1009.5 hPa | 0 mm | 4.47 m/s, 221° | 209 W/m² | - |
| 1777992325 | 11.67° C | 69% | 1009.8 hPa | 0 mm | 5.36 m/s, 235° | 170 W/m² | - |
| 1777992022 | 11.67° C | 70% | 1009.9 hPa | 0 mm | 4.02 m/s, 258° | 147 W/m² | - |
| 1777991720 | 11.11° C | 71% | 1009.6 hPa | 0 mm | 3.58 m/s, 257° | 141 W/m² | - |
| 1777991416 | 11.11° C | 72% | 1009.8 hPa | 0 mm | 3.58 m/s, 246° | 153 W/m² | - |
| 1777991114 | 10.56° C | 72% | 1009.8 hPa | 0 mm | 4.92 m/s, 229° | 140 W/m² | - |
| 1777990811 | 10.56° C | 73% | 1009.5 hPa | 0 mm | 2.68 m/s, 230° | 121 W/m² | - |
| 1777990508 | 10.56° C | 74% | 1009.4 hPa | 0 mm | 3.58 m/s, 256° | 93 W/m² | - |
| 1777990205 | 10° C | 75% | 1009.6 hPa | 0 mm | 1.34 m/s, 253° | 76 W/m² | - |
| 1777989902 | 10° C | 76% | 1009.8 hPa | 0 mm | 0 m/s | 68 W/m² | - |
| 1777989598 | 10° C | 76% | 1009.5 hPa | 0 mm | 0 m/s | 63 W/m² | - |
| 1777989295 | 9.44° C | 77% | 1009.8 hPa | 0 mm | 0 m/s | 53 W/m² | - |
| 1777988991 | 9.44° C | 77% | 1009.4 hPa | 0 mm | 0 m/s | 46 W/m² | - |
| 1777988688 | 8.89° C | 78% | 1009.5 hPa | 0 mm | 0 m/s | 35 W/m² | - |
* Rain latest hour (hover to see other rain measurements)
** Current wind speed in m/s (hover to see current wind gust speed)